This is the latest recevied weather packets stored in our database for station/object KD4IZ-13. If no packets are shown the sender has not sent any weather packets the latest 10 day(s).
| Time | Temp. | Humidity | Pressure | Rain* | Wind** | Luminosity | Snow |
|---|---|---|---|---|---|---|---|
| 1777474298 | 12.22° C | 86% | 1016 hPa | 0 mm | - | 114 W/m² | - |
| 1777473995 | 12.22° C | 86% | 1016 hPa | 0 mm | - | 124 W/m² | - |
| 1777473693 | 12.22° C | 86% | 1015.8 hPa | 0 mm | - | 125 W/m² | - |
| 1777473389 | 12.22° C | 86% | 1015.8 hPa | 0 mm | - | 131 W/m² | - |
| 1777473085 | 12.22° C | 86% | 1015.8 hPa | 0 mm | - | 119 W/m² | - |
| 1777472782 | 12.22° C | 86% | 1015.7 hPa | 0 mm | - | 96 W/m² | - |
| 1777472478 | 12.22° C | 86% | 1015.5 hPa | 0 mm | - | 88 W/m² | - |
| 1777472175 | 12.22° C | 86% | 1015.8 hPa | 0 mm | - | 103 W/m² | - |
| 1777471870 | 12.22° C | 86% | 1015.9 hPa | 0 mm | - | 77 W/m² | - |
| 1777471567 | 12.22° C | 86% | 1015.9 hPa | 0 mm | - | 67 W/m² | - |
| 1777471264 | 12.22° C | 87% | 1015.8 hPa | 0 mm | - | 87 W/m² | - |
| 1777470960 | 12.22° C | 86% | 1015.9 hPa | 0 mm | - | 128 W/m² | - |
| 1777470657 | 12.22° C | 87% | 1015.8 hPa | 0 mm | - | 98 W/m² | - |
| 1777470353 | 12.22° C | 87% | 1015.5 hPa | 0 mm | - | 111 W/m² | - |
| 1777470050 | 12.22° C | 87% | 1015.4 hPa | 0 mm | - | 108 W/m² | - |
| 1777469746 | 11.67° C | 87% | 1016 hPa | 0 mm | - | 88 W/m² | - |
| 1777469442 | 11.67° C | 87% | 1015.8 hPa | 0 mm | - | 80 W/m² | - |
| 1777469137 | 11.67° C | 87% | 1016 hPa | 0 mm | - | 68 W/m² | - |
| 1777468837 | 11.67° C | 87% | 1016.3 hPa | 0 mm | - | 54 W/m² | - |
| 1777468533 | 11.67° C | 87% | 1016 hPa | 0 mm | - | 58 W/m² | - |
| 1777468230 | 11.67° C | 87% | 1016.2 hPa | 0 mm | - | 76 W/m² | - |
| 1777467927 | 11.67° C | 87% | 1016.3 hPa | 0 mm | - | 66 W/m² | - |
| 1777467623 | 11.67° C | 87% | 1016.2 hPa | 0 mm | - | 55 W/m² | - |
| 1777467318 | 11.67° C | 87% | 1016 hPa | 0 mm | - | 70 W/m² | - |
| 1777467014 | 11.67° C | 87% | 1016 hPa | 0 mm | - | 61 W/m² | - |
* Rain latest hour (hover to see other rain measurements)
** Current wind speed in m/s (hover to see current wind gust speed)